Location: Shenandoah County Park
(38.9356°N, 78.4524°W)
Time: 10:54:52
(UTC-04:00)

Vanguard 1 Rocket - Pass Details

Date: 12 February 2023
Orbit: 652 x 4223 km, 34.3° (Epoch: 24 March)

Event Time Altitude Azimuth Distance (km) Brightness Sun altitude
Rises 09:05:59 0° 217° (SW) 3,152 10.2 19.4°
Reaches altitude 10° 09:08:16 10° 205° (SSW) 2,410 9.8 19.8°
Maximum altitude 09:13:03 29° 145° (SE) 1,846 10.8 20.5°
Drops below altitude 10° 09:20:29 10° 89° (E) 3,846 11.5 21.6°
Sets 09:25:16 0° 80° (E) 5,460 11.9 22.3°
